Location: Kaseke
(18.0171°S, 31.0526°E)
Time: 12:51:55
(UTC+00:00)

Cosmos 2360 Rocket - Pass Details

Date: 14 July 2020
Orbit: 832 x 846 km, 71.0° (Epoch: 07 August)

Event Time Altitude Azimuth Distance (km) Brightness Sun altitude
Rises 03:36:37 0° 1° (N) 3,381 5.6 -12.2°
Reaches altitude 10° 03:39:11 10° 8° (N) 2,450 5.0 -11.6°
Maximum altitude 03:44:24 40° 76° (ENE) 1,221 3.8 -10.4°
Drops below altitude 10° 03:49:39 10° 144° (SE) 2,464 4.8 -9.2°
Sets 03:52:13 0° 151° (SSE) 3,401 5.5 -8.7°
